RH
50 51 51 51 53 54 57 61 62 62 63 63 66 68 70 79 88 92 89 76 63 59 58 58 56 51 47 45 45 46 46 48 55 60 61 63 62 64 72 77 80 83 82 82 82 83 86 86 87 88 86 87 90 89 87 87 88 84 82 86 88 88 89 88 87 86 89 91 93 94 95 95 96 96
50 52 51 52 55 56 58 62 62 62 64 64 64 67 67 72 80 87 92 82 64 60 62 59 57 54 51 51 50 50 50 52 58 62 63 63 63 68 75 77 79 79 76 77 78 81 86 87 88 88 88 88 89 91 89 86 88 87 84 86 88 86 87 87 86 86 89 90 92 94 95 95 96 96
51 52 54 56 57 59 61 63 63 62 65 64 64 66 67 70 72 74 85 88 71 62 65 64 61 60 57 54 55 55 53 56 61 64 65 66 67 72 76 75 74 73 70 72 79 84 88 90 90 89 90 90 91 93 92 87 86 86 85 87 86 84 84 84 86 86 87 90 92 93 94 95 95 95
53 54 57 58 57 60 63 64 64 65 65 64 63 67 67 68 70 70 77 86 77 67 68 69 65 63 59 58 60 59 56 58 63 65 65 67 70 72 74 73 71 70 68 72 80 86 88 91 92 92 92 92 92 92 91 90 86 80 82 86 82 80 82 82 85 86 85 89 91 92 94 94 94 94
56 57 60 59 57 61 64 65 66 66 65 64 64 67 69 70 71 72 74 81 81 74 71 71 68 64 64 65 64 61 59 61 65 68 67 68 71 73 73 68 65 66 68 72 79 85 87 90 92 93 94 93 92 91 89 89 86 77 77 84 82 79 81 83 86 86 85 88 89 91 94 94 93 94
59 60 61 61 60 62 65 65 66 66 64 65 67 67 71 75 76 76 76 79 83 82 77 72 70 67 68 70 66 63 64 66 68 69 69 72 73 72 67 61 60 66 70 72 78 84 88 91 93 94 95 93 91 91 90 90 88 79 78 83 83 81 83 85 89 88 86 88 89 91 92 93 94 94
61 62 63 62 62 63 67 66 65 66 66 65 68 69 72 78 81 79 76 76 82 86 82 75 71 71 72 72 69 66 67 69 69 70 72 75 72 65 62 61 63 68 69 71 78 83 86 89 89 91 94 93 91 91 90 90 89 84 83 85 85 85 86 88 90 90 88 89 89 90 90 91 93 95
63 65 66 64 63 64 67 67 65 65 67 67 67 70 75 82 85 79 73 75 84 89 87 79 73 73 76 77 74 70 69 69 70 73 75 72 66 61 62 64 64 66 69 72 78 81 84 84 82 83 87 90 91 91 90 90 89 85 83 85 86 88 87 87 89 89 89 90 89 90 90 90 94 98
64 66 67 64 63 65 66 66 66 65 67 67 65 68 78 85 83 76 75 83 89 90 88 82 75 75 78 78 75 70 68 69 72 75 73 69 65 63 63 63 63 64 66 68 71 75 77 80 80 81 84 86 89 91 91 91 91 88 85 85 88 89 88 87 89 90 89 89 88 89 90 90 94 95
65 66 67 65 63 63 64 64 64 64 65 63 62 69 80 81 77 79 87 92 89 87 88 84 78 78 78 75 71 67 68 72 76 76 71 67 66 64 63 64 65 65 65 65 67 70 73 76 78 80 84 87 90 92 93 93 93 90 88 89 91 91 90 88 89 90 90 90 89 88 89 91 92 89
68 69 67 65 63 60 60 59 59 62 62 60 62 72 78 75 78 88 92 89 86 88 90 84 78 79 78 72 68 68 73 78 79 77 74 71 68 66 67 68 69 70 69 66 66 69 72 75 77 79 83 86 88 91 95 97 97 96 94 95 97 97 96 93 91 90 90 92 93 91 89 91 91 84
69 70 68 66 64 59 55 54 54 56 56 57 63 70 73 75 84 91 88 85 90 95 92 83 78 80 77 70 70 76 82 85 83 79 76 75 73 71 72 74 75 74 70 68 68 70 72 73 72 73 75 77 79 82 86 90 93 94 93 94 97 98 97 96 95 92 91 92 95 94 91 92 90 80
69 69 67 66 63 58 54 51 53 56 55 55 60 65 71 78 84 86 87 92 98 100 94 85 79 78 74 73 80 88 90 89 85 81 78 77 78 79 80 79 77 75 71 71 73 73 72 71 70 70 69 70 73 75 77 80 82 85 88 90 94 95 95 96 97 94 92 90 92 92 91 92 90 78
71 69 69 68 63 59 53 50 59 69 67 65 74 82 86 88 88 91 97 99 97 96 94 86 79 79 81 87 93 95 91 87 83 82 82 84 86 88 88 82 76 74 74 75 75 73 72 71 69 70 69 69 70 70 71 73 76 81 85 88 91 93 93 96 96 94 92 90 90 89 89 91 90 79
73 72 71 70 66 61 55 56 67 74 71 73 85 93 91 87 88 93 97 97 96 95 93 86 84 89 94 96 94 90 86 84 85 88 91 92 93 91 91 88 80 77 78 77 75 72 71 70 69 69 70 70 70 70 70 73 77 80 83 85 88 89 90 92 94 94 93 90 88 87 86 90 90 79
73 74 73 72 69 62 57 58 60 61 70 84 89 87 85 82 84 89 92 95 95 93 91 91 93 98 100 96 90 86 85 89 94 98 97 95 94 90 89 88 83 81 82 82 80 77 74 73 72 70 71 71 71 72 74 79 84 87 90 92 93 94 93 92 92 93 93 89 87 86 84 88 90 78
73 74 74 73 70 63 61 66 63 61 75 88 83 79 82 81 82 88 91 89 86 85 92 99 99 98 96 92 88 88 93 98 101 101 98 96 95 94 94 92 87 86 90 89 87 84 78 76 74 72 72 72 71 72 74 79 84 88 92 94 96 98 99 97 94 92 93 91 89 87 84 86 92 85
71 73 74 73 71 66 69 80 83 78 80 82 77 77 82 80 80 85 87 85 85 89 96 100 97 95 93 93 95 97 100 102 100 100 100 99 99 99 99 97 94 94 95 93 91 88 82 77 75 73 73 72 71 70 72 78 84 89 92 94 94 97 99 100 98 92 91 90 88 88 87 85 91 93
69 73 75 73 71 71 75 82 84 80 78 80 83 85 86 86 88 92 93 94 95 97 99 100 99 98 98 99 100 99 100 101 100 101 101 100 100 101 99 97 95 93 90 87 88 89 83 77 74 73 73 73 72 72 73 77 82 88 93 95 96 98 99 100 100 96 91 89 86 86 88 85 89 95
71 75 75 73 74 77 79 79 81 85 89 91 93 92 92 94 97 97 97 98 100 101 100 99 99 101 102 101 101 101 101 101 100 100 100 100 100 101 99 94 88 84 84 83 84 85 82 78 76 74 74 74 74 74 74 76 80 84 89 93 95 98 100 99 101 98 93 91 88 85 86 86 90 94
78 78 76 77 82 83 81 81 87 96 97 95 94 94 95 97 98 97 97 97 96 95 98 101 102 101 95 90 94 99 98 99 101 101 101 101 101 101 99 93 86 83 83 83 83 84 83 82 80 79 79 80 81 81 80 78 80 83 87 91 94 96 99 99 100 99 94 91 89 87 85 85 90 93
85 83 80 83 87 87 84 85 89 92 91 92 93 94 96 98 98 98 97 92 88 92 100 99 87 72 57 51 59 66 68 82 100 102 99 100 102 102 100 94 89 85 81 79 84 89 89 88 88 87 88 88 85 84 83 80 80 83 85 88 92 95 98 99 98 97 94 90 88 87 85 84 90 94
90 87 86 87 87 85 85 87 90 92 93 96 97 96 99 100 99 96 93 91 95 98 93 74 51 38 36 39 46 47 46 60 77 81 85 96 103 104 101 96 93 91 83 79 85 93 91 89 89 87 90 93 85 78 78 81 84 87 88 90 91 92 96 100 99 96 92 87 87 87 85 84 91 94
94 91 90 92 92 91 92 95 97 99 98 96 96 97 99 100 97 95 95 98 101 88 64 44 34 33 39 45 50 53 52 55 60 66 79 94 102 105 104 99 97 94 86 79 84 92 91 90 89 86 90 96 91 81 79 82 85 87 90 93 95 94 92 92 93 95 93 86 84 86 85 85 91 92
95 92 92 95 95 97 99 99 99 98 94 93 97 100 101 99 96 98 101 98 84 59 40 34 33 35 42 47 50 54 55 56 59 65 73 82 91 100 104 103 100 97 89 83 89 98 98 95 95 90 88 92 91 86 84 83 84 85 88 93 98 99 92 79 71 79 87 85 85 88 87 86 89 88
93 90 90 88 87 93 99 98 95 93 92 96 101 101 99 99 100 101 94 75 53 37 34 38 39 39 46 50 49 50 53 54 57 62 66 70 79 89 97 103 104 102 96 89 94 102 102 98 97 94 90 89 88 86 86 84 83 83 84 91 99 102 97 81 65 66 76 79 86 93 91 88 88 85
90 88 86 84 82 89 95 92 89 91 97 101 101 99 99 101 97 83 63 44 35 35 40 49 54 52 54 58 57 55 56 57 58 63 65 67 73 82 89 95 99 102 101 98 98 101 102 100 99 97 94 92 90 89 89 86 84 82 82 89 97 101 100 89 75 70 74 79 88 96 93 89 88 84
88 85 83 84 84 84 87 89 92 98 102 99 98 101 101 92 72 50 36 33 36 41 48 61 68 62 59 64 64 60 60 60 61 64 66 67 73 81 86 89 91 95 98 100 100 101 101 101 101 100 99 98 96 95 93 89 87 86 85 88 95 102 100 91 81 79 83 90 96 99 95 91 86 81
83 82 84 89 88 82 86 96 100 100 99 99 102 100 85 62 42 32 32 37 40 46 57 69 73 65 59 61 62 60 61 62 60 64 68 70 73 78 81 84 86 89 93 95 97 100 101 101 101 100 100 101 100 97 95 91 88 88 89 89 94 100 98 89 85 88 94 98 100 99 97 92 84 81
84 89 92 91 88 88 96 102 100 95 92 91 87 73 50 35 31 32 36 40 44 52 62 69 70 64 57 57 58 59 62 62 60 65 73 75 74 74 76 79 81 83 88 92 94 99 102 102 101 101 100 101 100 98 95 93 90 89 90 91 92 96 96 91 89 94 99 100 100 100 99 93 88 87
94 99 98 94 93 98 102 99 93 87 77 64 53 40 32 32 34 35 40 44 47 52 60 65 65 60 55 55 57 58 62 63 61 65 75 80 77 73 74 79 81 80 82 87 91 96 100 100 101 101 100 100 101 99 97 97 95 92 91 93 94 95 96 96 95 97 100 100 100 101 100 97 94 93
98 99 100 99 100 101 98 91 83 72 58 45 36 31 32 35 35 37 41 42 41 46 56 62 62 58 55 57 59 61 63 62 60 65 74 78 76 72 73 78 81 81 82 83 84 88 92 92 94 99 101 100 99 99 99 99 98 96 94 96 98 98 97 99 100 99 100 100 100 100 100 99 99 97
97 99 100 100 101 100 94 85 74 60 47 39 33 31 34 36 37 38 37 35 37 44 54 62 65 63 59 57 59 65 68 62 59 65 73 75 73 72 73 73 74 78 84 86 85 87 89 88 89 95 100 100 98 97 98 97 96 98 99 100 100 100 99 100 100 100 100 100 100 100 100 99 100 100
95 101 101 100 98 93 86 79 67 53 44 37 32 33 37 37 36 36 35 34 39 44 49 58 65 67 65 63 63 70 74 68 61 63 70 73 73 74 74 71 69 73 82 86 86 88 90 89 87 86 91 96 97 96 99 100 98 98 99 100 100 100 100 100 100 100 100 100 99 100 101 100 100 100
96 100 100 98 90 80 77 75 64 49 39 33 31 36 39 35 33 35 36 37 38 40 43 51 58 62 66 68 69 73 77 75 69 66 69 72 73 74 74 72 70 72 78 82 83 85 89 92 90 83 81 87 90 88 91 99 102 99 96 97 100 100 100 100 101 100 100 100 99 100 100 100 100 100
96 97 93 89 82 75 76 75 62 44 34 29 30 35 37 33 32 35 37 39 39 39 42 46 51 56 62 67 68 70 75 78 76 72 73 76 76 75 73 71 69 70 72 73 76 83 90 95 96 91 85 84 87 87 86 91 99 102 99 98 100 101 100 100 100 100 100 100 99 100 100 100 100 100
87 86 81 77 74 71 74 71 57 41 31 27 29 33 33 31 32 35 39 40 38 38 41 43 47 52 58 62 63 64 69 75 79 79 79 79 79 78 77 74 72 70 69 66 67 77 89 94 96 96 93 91 93 94 88 84 90 99 102 100 100 101 100 100 98 98 100 100 99 100 100 100 100 100
79 74 71 70 65 63 69 69 54 37 28 27 29 31 30 30 32 36 39 39 37 36 37 39 43 48 54 60 65 66 68 72 76 80 82 83 83 83 83 80 76 72 69 64 61 68 81 91 94 96 98 99 99 99 94 88 89 94 99 101 101 100 99 100 99 98 100 101 100 100 100 100 100 101
78 68 64 61 54 55 66 66 49 32 26 26 27 28 29 30 32 36 38 38 35 35 36 37 41 46 50 56 62 66 70 76 80 84 85 85 85 85 85 82 79 76 71 65 62 67 78 87 91 94 99 102 100 99 100 99 95 93 94 97 101 101 100 100 100 100 100 100 100 100 100 100 99 100
79 65 58 51 45 51 63 61 44 30 25 24 26 28 29 30 32 34 36 35 34 36 37 37 39 44 47 51 53 56 63 72 77 82 85 84 82 83 84 83 80 78 76 70 66 70 77 81 82 84 90 93 91 91 94 95 90 86 88 91 95 99 101 101 100 100 101 101 100 100 100 100 100 100
81 67 56 46 42 51 59 52 38 30 27 26 27 28 29 30 32 32 33 34 34 35 37 38 40 43 46 49 51 54 60 66 70 74 80 83 81 78 80 81 80 80 81 79 75 74 74 72 70 70 73 78 80 82 85 88 87 86 87 88 88 91 96 100 101 100 100 100 99 97 96 96 98 99
85 69 55 44 41 51 56 47 36 30 27 26 27 28 28 30 31 31 32 33 34 34 35 37 39 42 45 47 49 52 57 63 68 70 75 82 83 80 80 83 85 84 84 84 80 73 66 62 62 63 64 68 74 80 84 87 90 90 88 85 83 83 87 94 99 100 100 100 100 99 97 95 95 97
89 72 54 41 41 52 55 46 35 29 26 25 25 26 27 29 30 30 31 33 34 34 35 37 39 41 43 46 48 50 52 57 62 66 69 77 83 85 85 85 83 81 81 80 73 64 59 58 60 63 65 66 72 80 84 84 85 88 88 84 82 81 80 83 90 94 96 98 99 100 101 100 98 98
92 73 52 39 42 54 57 48 37 31 26 24 24 25 26 27 28 29 30 32 33 33 33 36 38 40 41 43 45 47 49 51 56 60 64 68 74 78 82 83 80 75 75 76 71 62 58 58 59 63 68 71 73 81 85 81 79 86 90 85 79 79 79 78 82 85 87 91 96 98 99 101 102 100
95 79 54 37 41 55 59 53 46 38 30 25 24 24 25 26 27 29 29 30 32 33 33 34 37 38 40 43 44 45 47 49 50 52 55 58 62 66 70 76 79 76 73 76 77 72 65 61 60 62 67 69 70 73 76 73 71 81 89 84 77 81 84 81 81 81 80 83 90 94 95 97 99 99
Wind_Speed
31 30 29 29 28 28 26 26 26 25 24 23 21 20 17 11 7 7 9 8 8 12 14 15 16 17 17 19 22 26 31 32 31 32 33 35 36 35 32 31 32 33 34 36 37 38 39 39 39 40 40 40 41 41 40 39 40 40 39 40 40 41 42 41 40 40 39 38 36 35 35 35 36 34
30 30 29 28 28 28 26 26 26 25 24 23 22 22 21 18 11 7 9 10 10 11 14 15 18 21 22 25 29 31 33 33 31 32 34 34 35 33 31 31 32 33 35 38 39 40 40 40 40 40 40 40 41 42 41 40 40 40 39 40 40 40 41 41 40 39 39 38 36 35 34 35 35 33
31 29 29 28 28 27 26 25 25 25 24 23 23 22 21 20 18 14 10 10 11 12 15 20 23 26 28 30 31 34 36 34 31 31 32 33 32 31 31 31 32 35 38 39 39 38 38 38 39 39 40 41 41 42 42 41 41 40 40 41 41 40 40 40 40 39 38 37 36 34 32 34 34 31
31 30 28 28 28 26 25 25 25 24 24 24 23 22 22 20 21 20 14 10 13 18 23 28 28 27 29 31 32 35 38 33 29 30 31 31 31 31 32 33 34 36 38 37 36 36 36 36 36 37 38 39 40 41 41 41 41 40 40 41 42 40 39 39 39 39 38 37 35 33 32 33 31 28
31 30 28 28 28 26 25 25 25 24 24 24 23 22 21 21 20 21 17 12 13 20 25 28 30 29 28 32 32 32 35 33 29 30 30 30 30 31 33 36 37 36 36 36 35 35 35 35 35 36 36 37 38 39 39 40 40 40 39 40 41 40 39 39 39 38 37 36 35 32 31 31 29 26
31 29 28 27 27 26 25 25 25 24 24 24 23 22 21 21 21 21 20 16 12 15 22 27 29 29 27 29 31 29 31 33 31 30 30 28 28 31 34 37 38 36 34 35 35 35 35 35 35 35 36 36 37 37 37 38 39 38 38 39 40 40 39 39 38 37 36 35 35 32 30 30 28 25
30 29 28 27 27 25 25 26 25 25 24 24 23 22 21 21 22 21 21 20 15 14 21 26 27 28 26 26 29 29 30 32 31 30 28 27 30 34 35 35 36 35 34 35 35 34 34 34 35 35 35 35 35 36 36 36 37 36 36 37 37 38 38 38 39 38 36 34 33 32 30 29 27 25
29 28 28 27 27 25 25 26 26 25 25 25 23 22 22 21 22 21 21 23 22 18 20 24 26 27 26 25 26 29 31 31 29 27 27 30 33 35 34 33 35 35 34 34 34 34 34 35 36 36 35 35 34 34 34 34 34 34 34 35 35 36 37 37 38 39 37 34 32 30 30 29 27 26
28 28 28 28 27 26 26 26 26 26 26 25 23 22 22 22 22 23 24 25 26 22 20 24 28 28 26 26 26 27 28 28 27 27 29 31 32 34 34 32 33 33 33 32 32 33 34 34 35 35 35 35 35 35 35 34 33 33 33 35 36 37 38 37 37 39 38 36 33 30 29 29 28 27
29 28 28 28 27 27 27 27 26 26 26 25 23 22 22 22 23 25 26 25 25 23 21 24 29 28 25 26 26 25 24 26 27 31 34 32 29 31 32 30 30 31 32 33 32 32 34 35 35 36 35 35 36 36 36 35 35 35 35 36 37 37 39 38 37 37 36 36 34 31 29 28 28 29
29 28 28 28 28 28 29 28 27 26 25 24 24 23 22 24 25 25 25 24 22 21 20 23 27 27 25 25 26 26 25 25 28 31 32 29 25 25 28 29 30 31 33 35 35 35 36 37 37 37 37 37 36 36 35 35 35 35 34 35 36 36 38 37 37 37 36 35 33 31 30 29 28 30
29 28 28 29 29 29 29 29 28 26 26 25 24 24 23 25 25 24 22 21 19 17 18 22 26 25 24 25 26 24 21 20 22 23 25 27 28 29 29 28 29 32 36 38 38 36 35 35 36 35 36 36 34 33 33 33 34 34 33 34 34 35 36 36 36 37 35 34 33 31 31 29 29 31
29 29 29 28 29 29 28 28 27 26 26 26 25 25 25 25 23 21 21 20 16 13 14 19 22 21 22 23 20 17 16 18 21 24 25 29 31 32 32 31 30 32 35 35 34 32 29 31 33 33 33 34 31 30 31 31 31 31 31 32 32 31 33 34 34 36 35 34 33 32 31 30 29 31
29 28 28 28 28 28 28 27 25 24 24 24 25 25 24 23 21 19 19 17 16 14 14 17 20 17 14 15 14 17 23 25 26 27 27 28 29 26 27 31 30 26 25 28 29 29 27 28 32 32 32 32 30 30 31 29 29 29 28 29 29 29 30 32 32 34 34 33 33 32 32 31 30 30
29 28 27 26 26 26 26 25 24 23 23 22 23 22 20 20 20 19 18 16 16 17 16 19 20 14 10 14 19 25 30 28 26 26 25 25 25 20 15 17 21 18 18 24 30 31 29 27 30 33 32 32 31 30 31 30 29 30 31 32 32 31 31 32 32 33 33 32 32 33 32 31 29 29
29 28 27 25 24 24 25 25 24 23 23 21 19 19 19 20 21 21 21 21 19 19 19 19 18 14 14 20 24 26 29 27 25 25 25 24 26 22 14 14 20 22 21 24 29 32 29 25 28 34 32 30 31 31 31 30 29 30 31 31 32 32 31 32 33 33 32 31 31 32 31 30 29 29
28 28 26 23 22 22 22 22 23 23 22 21 19 18 19 20 21 21 22 23 23 23 23 20 18 20 22 26 28 29 28 28 26 25 26 27 28 25 20 21 30 30 24 23 26 30 30 26 28 34 32 29 32 33 32 31 30 29 30 30 31 31 30 31 32 32 32 30 30 31 31 30 29 29
28 27 25 22 21 21 21 20 20 20 19 19 19 19 20 21 22 21 20 22 23 24 23 23 26 29 30 31 34 34 30 30 32 30 29 29 28 27 28 32 37 34 26 23 23 23 24 22 24 31 31 28 31 33 32 31 30 30 30 30 30 30 29 30 31 32 31 30 30 31 31 29 29 29
27 25 23 21 20 20 21 21 19 17 16 15 16 18 19 20 20 19 19 19 20 21 22 25 29 31 30 30 32 33 31 32 34 33 32 33 33 33 34 33 35 34 27 23 19 17 20 21 23 28 29 26 29 32 30 30 30 30 30 30 30 31 30 29 31 31 31 31 30 30 30 29 28 28
25 24 21 20 20 20 21 20 17 14 13 13 15 16 17 17 17 18 18 17 18 20 23 25 27 27 28 30 32 33 33 32 32 32 33 34 31 26 22 21 25 27 22 19 19 17 19 22 23 25 26 25 28 30 30 30 30 29 30 30 30 30 30 30 31 31 31 30 30 30 30 29 28 28
23 22 21 20 20 20 20 17 13 10 10 12 13 14 15 16 17 18 19 19 21 23 23 24 25 27 31 33 33 33 31 28 28 27 26 25 21 15 11 10 15 20 20 20 22 19 17 20 22 23 26 26 27 30 32 32 31 31 30 30 30 30 30 31 31 32 31 31 30 30 29 28 27 27
22 21 21 21 21 20 18 15 11 9 10 11 11 12 14 16 17 17 20 24 25 24 23 26 29 31 32 31 29 28 25 23 22 22 22 23 18 11 9 8 12 21 24 22 19 15 14 18 19 18 20 23 26 29 31 31 31 30 29 28 29 29 30 30 31 31 31 31 30 29 29 27 26 26
22 22 21 20 20 18 15 12 9 8 9 9 9 12 13 13 14 18 22 23 23 24 27 31 33 32 27 24 22 21 20 18 17 18 21 22 19 14 12 11 11 13 13 10 8 9 12 16 19 16 12 12 17 21 23 24 26 26 25 25 26 28 29 29 30 30 30 30 30 29 28 27 26 26
22 22 21 19 17 15 12 9 8 8 8 8 9 11 11 10 15 19 19 19 21 26 31 32 31 28 24 22 22 22 21 19 17 18 19 20 21 19 18 17 12 11 17 20 17 16 18 18 19 18 13 8 10 16 21 23 23 24 23 23 23 25 26 28 30 30 29 30 30 29 28 27 27 27
24 24 23 21 16 13 10 8 8 8 7 8 8 8 7 10 14 16 17 21 24 27 28 28 27 25 25 25 25 24 24 23 21 21 21 21 22 22 22 22 16 15 28 35 26 19 21 19 17 18 16 12 11 15 21 25 26 25 23 22 24 23 23 28 30 30 29 29 29 29 28 28 29 30
26 25 24 22 17 12 9 8 8 8 7 7 8 6 7 9 13 16 20 23 23 23 23 24 24 25 26 28 29 28 28 27 25 25 25 23 24 25 26 27 23 22 33 40 33 26 24 21 18 15 12 10 12 12 13 18 23 24 19 18 23 23 22 25 29 29 28 28 28 29 29 29 29 31
26 25 22 19 16 12 9 8 8 7 7 8 7 5 6 10 15 18 19 18 18 19 20 21 22 24 25 28 30 30 30 30 28 28 26 25 25 26 27 30 31 32 37 40 38 33 29 27 25 21 15 12 11 10 8 11 18 22 20 18 20 21 21 23 26 27 26 26 26 26 27 28 28 28
25 23 21 17 13 11 9 8 9 8 7 6 3 3 7 12 15 15 15 14 15 17 18 19 21 22 23 26 28 29 30 30 29 28 27 26 25 24 26 28 28 29 31 31 31 30 28 29 29 26 22 17 9 7 9 10 14 18 18 19 17 18 20 22 24 24 23 23 25 24 25 27 26 27
23 21 19 14 11 10 10 10 11 10 8 5 3 5 9 11 11 11 11 12 14 16 17 19 20 22 24 25 25 26 27 28 29 29 28 28 26 24 25 26 24 22 21 21 22 22 21 24 25 23 22 20 14 11 11 10 13 17 17 16 13 15 21 22 22 21 21 22 24 25 26 26 26 28
20 18 15 13 12 12 13 12 11 10 9 7 6 7 8 8 8 8 9 10 12 15 17 18 19 22 24 25 25 26 26 26 28 29 29 29 28 25 26 27 25 24 21 16 15 18 18 19 20 21 22 20 16 16 16 11 11 16 18 17 14 11 16 22 21 20 21 22 22 24 25 24 25 26
20 17 14 15 15 14 13 12 11 10 9 8 7 6 6 6 6 6 7 9 10 13 15 17 19 21 23 25 26 27 27 27 27 28 27 26 26 27 26 23 23 27 29 24 19 19 19 18 17 17 19 20 18 18 19 15 11 13 18 21 17 11 14 20 21 19 21 22 20 20 21 21 22 24
21 19 17 17 16 14 12 10 9 8 8 6 5 5 5 4 4 4 5 6 9 11 13 16 18 21 23 25 27 28 28 28 29 28 27 24 24 26 23 16 15 23 30 33 34 32 27 21 17 15 9 7 9 11 14 14 11 13 17 15 6 10 13 16 18 17 19 20 19 19 21 21 22 24
23 21 19 18 17 15 12 10 9 8 8 6 6 5 4 3 2 3 5 6 9 12 14 16 18 21 23 25 27 28 28 29 30 29 27 25 24 23 19 13 13 18 21 26 33 37 35 27 16 9 10 14 17 15 4 4 7 10 12 11 11 12 9 6 11 16 18 19 18 18 19 22 23 24
23 21 19 18 17 16 14 12 11 11 9 8 6 6 4 2 1 3 5 7 10 12 14 15 17 20 22 24 26 27 27 29 31 29 26 25 23 21 18 14 16 20 19 18 25 33 38 35 25 14 10 11 17 23 22 14 10 13 16 20 21 16 12 10 3 11 18 18 16 14 13 16 21 23
22 21 18 17 17 16 15 14 13 12 11 9 8 7 5 2 0 2 4 7 10 12 13 15 17 19 21 22 23 24 25 27 29 29 28 27 24 22 19 14 16 22 22 19 25 33 36 34 29 20 13 8 3 12 27 31 25 21 20 22 27 25 18 15 11 7 14 15 13 10 7 8 14 20
20 20 19 17 17 17 16 15 14 13 11 10 9 8 5 3 1 2 4 7 9 11 13 16 17 19 20 21 21 22 23 24 25 27 28 28 25 23 21 17 18 24 23 20 26 34 31 26 22 13 7 7 5 5 15 27 31 29 21 18 25 32 26 19 15 13 10 8 8 8 5 5 9 15
19 19 19 18 19 19 17 16 15 14 12 11 10 8 5 3 1 1 3 5 7 9 12 14 16 17 19 20 21 22 22 22 23 23 24 25 24 22 21 19 19 22 22 20 27 34 29 21 18 12 6 7 8 5 8 17 26 34 31 23 25 32 31 23 18 16 14 9 6 6 5 7 10 12
19 20 19 18 19 20 18 17 16 15 14 12 10 8 6 4 2 0 2 3 6 8 11 13 15 16 18 19 20 21 22 22 22 22 23 24 23 20 19 18 18 20 20 19 26 35 32 21 17 15 8 4 3 4 6 9 16 28 34 30 28 31 33 27 17 13 15 13 7 3 4 9 12 11
20 21 20 20 20 20 19 18 17 16 15 13 11 9 7 5 3 1 0 3 5 8 9 12 13 15 16 18 18 18 19 20 21 22 23 23 22 20 20 19 18 20 20 18 22 30 29 24 22 21 15 9 6 8 8 5 8 21 31 32 29 31 32 28 18 13 15 17 11 4 5 10 10 10
19 20 21 21 21 21 19 19 18 16 15 13 11 9 8 6 4 3 1 2 4 7 8 10 12 13 15 17 19 19 18 19 19 20 22 22 21 21 21 19 18 20 17 14 17 22 23 24 28 27 24 19 13 11 9 6 8 20 31 32 31 29 28 26 22 17 17 19 14 7 6 8 7 9
19 20 21 21 21 21 20 19 18 16 15 13 12 10 9 7 6 4 2 1 3 5 7 8 11 13 14 15 17 18 18 19 20 20 21 22 22 22 22 20 20 20 15 9 13 19 22 25 27 24 24 24 16 6 6 7 7 14 24 28 29 29 26 25 24 22 22 23 19 10 6 6 5 5
21 20 20 21 21 21 20 19 18 17 16 14 12 11 10 8 6 4 2 1 2 4 6 7 9 11 13 14 15 17 17 18 19 20 21 22 22 22 23 22 20 19 15 10 14 20 24 27 29 25 25 31 27 14 7 7 6 8 17 25 29 30 27 24 23 23 26 29 25 16 9 6 5 5
21 20 20 21 21 20 20 19 18 17 16 14 13 12 10 9 7 5 4 2 0 2 3 6 7 9 11 12 13 15 16 17 18 19 20 20 20 20 21 21 20 19 19 17 20 24 26 28 30 27 25 29 28 15 5 6 8 9 13 21 28 30 29 26 24 24 26 28 27 22 16 10 6 4
22 21 20 21 22 21 20 19 18 17 16 14 13 12 11 9 8 6 5 3 1 0 2 4 6 7 9 10 11 13 15 16 17 17 18 19 20 18 19 21 21 21 23 23 24 27 28 27 28 26 23 23 22 15 7 7 9 11 12 16 23 29 31 30 27 26 28 29 28 24 21 18 14 11
23 22 20 21 22 22 21 19 18 17 16 15 14 13 11 10 9 7 6 5 3 1 1 3 5 6 8 9 11 12 14 14 15 17 17 19 20 20 20 21 21 21 23 24 23 24 26 26 26 25 23 21 21 19 14 11 12 13 14 16 21 26 29 28 25 23 24 28 29 26 23 20 18 17
Wind_Direction
228 229 230 232 236 238 235 234 234 236 240 242 246 250 250 254 274 291 287 281 277 276 274 278 289 292 290 290 292 293 293 292 290 290 289 288 290 290 289 290 292 292 293 294 294 291 288 285 282 280 280 279 279 279 278 277 278 278 277 279 281 282 284 285 284 286 289 290 291 292 294 294 295 301
227 228 230 233 236 237 235 235 236 237 239 242 246 250 249 247 251 272 288 282 274 275 272 274 285 292 292 293 295 294 293 293 291 289 289 288 289 290 289 289 291 292 294 294 294 291 287 285 282 280 280 279 278 278 278 276 277 278 277 278 278 279 281 283 283 284 286 287 289 290 292 293 293 301
227 227 230 233 235 236 234 235 236 237 239 243 246 248 246 247 254 260 273 282 272 268 278 284 287 290 293 295 296 295 295 293 291 290 289 289 289 288 287 288 290 292 295 294 292 290 287 284 282 279 278 277 276 277 277 276 275 275 276 277 276 277 278 280 281 282 283 283 286 288 288 291 292 299
225 226 229 232 233 234 233 234 236 237 239 243 245 246 247 251 258 260 261 272 276 275 281 287 290 291 294 295 295 296 296 294 292 290 289 289 288 287 287 289 291 292 294 293 291 289 287 285 282 279 277 276 275 275 274 274 273 272 273 274 274 274 274 276 278 278 280 280 282 286 285 287 293 298
226 226 228 231 233 233 233 234 236 236 239 242 243 245 251 255 258 259 259 268 281 282 282 284 289 293 296 295 295 296 296 295 294 291 289 289 287 287 290 293 294 292 291 291 289 288 287 285 282 278 276 275 274 273 272 271 272 270 269 271 271 272 272 272 274 274 276 279 278 282 284 284 291 298
227 226 227 231 233 233 233 234 235 237 238 240 242 246 252 256 258 257 260 269 278 284 285 286 291 295 295 293 294 295 294 294 294 291 288 288 287 290 293 293 292 290 289 289 287 287 287 286 283 280 277 275 272 271 270 269 270 268 266 268 269 270 271 270 273 272 272 276 277 279 282 282 287 296
227 226 226 230 232 231 232 233 235 237 238 240 244 250 255 258 259 257 260 268 272 278 286 289 293 298 297 290 292 295 293 291 291 288 286 288 291 294 293 291 289 287 287 288 286 285 286 286 286 282 278 276 272 271 270 268 268 267 265 267 268 268 271 271 273 273 271 273 276 278 280 282 284 291
225 224 225 229 231 230 230 233 235 236 237 240 244 253 258 257 257 260 263 266 267 272 283 288 292 297 295 289 291 294 293 289 287 286 289 293 295 295 292 289 287 286 286 286 285 284 285 285 286 283 279 277 274 271 270 267 266 265 262 265 267 268 270 271 272 274 275 273 274 276 279 282 284 286
223 223 225 228 230 229 229 232 234 234 236 240 247 255 259 257 258 264 266 264 264 268 276 286 292 292 290 289 291 291 291 291 290 290 293 296 296 295 292 289 286 285 286 285 284 284 284 284 284 282 279 278 275 271 269 267 265 264 262 263 266 267 268 269 271 273 276 277 276 277 278 280 284 285
223 223 225 228 229 228 229 231 232 234 236 241 250 255 256 260 263 266 266 264 264 266 270 282 289 290 289 290 290 289 289 292 296 301 301 297 293 292 292 289 286 285 284 284 284 284 284 284 283 282 280 278 277 272 268 266 264 263 262 262 263 265 265 266 268 270 273 277 278 278 280 279 280 281
221 223 225 228 230 230 232 233 233 235 238 243 251 255 259 265 266 264 264 263 263 265 270 280 285 286 287 288 288 288 289 290 296 303 303 299 295 292 290 289 287 286 285 285 285 284 284 284 282 281 279 278 277 274 269 266 264 261 260 260 261 262 263 263 264 266 268 272 276 276 278 279 277 274
220 223 225 228 232 233 235 237 237 238 241 245 250 256 263 266 263 261 260 260 261 260 266 278 282 284 286 286 286 287 290 294 298 301 299 296 297 296 292 288 286 288 289 287 286 285 284 283 281 279 279 278 275 273 270 267 266 264 261 261 261 260 262 262 261 263 264 266 271 273 273 275 275 270
221 224 227 230 233 236 238 240 241 243 245 247 250 255 261 262 259 258 256 255 258 257 263 276 281 283 284 284 286 290 293 297 300 300 295 289 290 294 293 288 286 287 288 287 285 284 283 283 282 279 277 276 274 272 271 268 266 265 261 259 259 258 259 260 260 260 261 262 264 267 270 271 271 267
221 225 228 232 234 237 241 242 242 243 243 246 249 250 254 256 253 251 251 253 259 262 268 275 279 281 278 279 290 296 296 298 298 296 293 288 290 294 294 292 291 285 281 285 286 283 284 286 284 280 276 275 275 272 270 267 263 263 260 258 258 258 258 259 259 259 258 259 259 261 265 268 268 265
219 223 226 230 233 235 238 240 242 242 242 248 252 251 253 258 258 257 260 266 268 269 271 274 275 276 276 286 294 296 296 296 291 288 288 289 292 295 294 294 296 292 287 291 290 286 287 288 284 281 278 275 274 271 269 267 264 262 261 260 259 258 258 258 258 259 257 255 256 256 259 263 264 262
218 221 223 226 229 233 237 240 242 243 243 246 250 253 259 265 268 270 272 276 277 275 274 274 274 278 288 294 295 293 292 289 284 285 288 289 288 287 284 283 286 291 297 297 291 286 288 290 284 280 277 273 273 271 269 267 265 263 260 260 259 256 255 255 254 256 256 253 254 253 254 258 257 257
216 218 221 222 226 233 238 239 240 241 241 241 245 255 264 267 270 273 274 276 277 276 278 281 285 290 294 294 290 287 287 286 287 288 285 283 281 277 276 279 283 289 297 297 291 286 287 287 281 277 275 273 272 271 270 267 264 263 260 258 259 255 252 252 250 252 253 251 252 251 250 253 252 252
215 217 219 220 224 231 233 230 231 233 235 242 254 266 273 275 278 280 279 278 275 274 279 285 288 289 287 285 284 284 285 285 286 284 282 283 283 280 280 282 283 286 287 287 287 285 285 284 278 275 274 274 272 270 270 268 264 263 260 257 258 255 251 250 248 250 250 247 250 250 247 250 249 249
216 216 217 220 224 228 228 224 224 228 238 254 268 276 280 282 284 282 280 278 272 273 279 281 283 284 283 282 284 287 289 288 285 284 284 286 287 287 287 285 282 283 281 276 273 274 282 283 277 276 277 277 276 273 272 270 265 263 261 257 256 253 250 249 246 247 248 245 247 248 246 247 247 246
214 215 215 218 222 223 221 218 219 228 246 261 269 274 277 279 280 278 277 275 274 281 286 286 285 286 287 288 290 292 292 290 289 289 287 286 286 288 289 285 283 285 283 271 262 267 280 280 274 278 281 279 278 275 274 273 268 264 260 256 255 252 248 247 246 245 246 244 244 245 244 244 244 244
208 209 210 212 214 213 212 214 220 230 245 255 260 267 273 277 278 276 277 281 286 290 289 288 288 289 291 293 292 292 291 290 292 293 287 285 289 288 285 286 287 289 287 276 267 265 274 276 272 278 282 280 277 276 276 275 271 265 260 254 251 250 247 245 244 244 244 243 243 243 241 241 240 241
199 201 206 208 208 207 210 219 230 236 241 246 253 265 273 275 276 280 290 295 296 295 291 290 293 295 296 296 293 291 292 293 293 289 283 287 291 282 274 286 293 293 290 283 271 260 263 272 273 278 285 282 278 275 276 278 276 271 264 256 248 244 243 242 241 241 241 240 241 241 239 237 236 237
191 194 200 205 208 211 215 224 232 232 233 238 253 263 264 270 282 293 300 300 298 299 300 302 304 306 307 308 306 305 306 304 298 290 286 287 285 277 277 282 291 297 292 286 287 281 278 280 280 282 291 291 285 281 279 282 284 281 273 264 253 243 237 236 237 237 237 237 238 238 236 233 231 231
183 189 194 197 201 205 207 215 223 223 229 241 251 252 253 276 297 299 296 295 299 305 307 307 310 315 322 326 326 326 324 322 316 307 298 287 278 277 279 276 273 273 272 277 290 291 283 281 279 279 277 274 287 296 294 291 290 288 280 268 256 247 236 230 230 232 232 232 233 234 234 230 226 225
181 185 189 191 191 194 198 208 217 220 232 243 241 241 263 293 297 291 288 294 302 305 307 311 317 326 334 336 335 336 332 330 329 320 311 300 287 280 276 273 270 267 273 280 285 281 276 276 275 275 271 263 269 286 294 294 290 286 280 265 254 249 236 225 224 224 224 226 229 232 231 227 223 220
184 188 191 194 197 199 197 204 213 215 225 233 236 255 291 292 280 278 287 297 303 307 313 321 328 336 341 339 338 339 335 334 333 326 319 314 302 290 280 275 271 268 276 285 288 278 271 271 270 272 270 266 270 275 286 294 291 288 290 275 256 246 233 222 217 216 216 219 226 232 230 225 221 218
187 191 193 197 203 204 197 203 209 207 214 229 242 268 280 270 270 282 293 300 307 316 326 333 334 337 341 339 336 336 334 333 332 329 325 321 313 304 295 288 282 278 280 288 291 282 270 264 262 262 258 260 273 276 271 281 287 291 300 293 264 240 224 215 210 209 210 213 223 231 227 222 219 217
191 192 193 196 202 199 191 192 194 192 206 226 240 247 257 266 278 292 302 309 321 330 337 337 333 334 339 336 333 333 332 331 332 331 329 327 320 312 306 303 301 295 290 290 290 285 276 269 267 264 257 251 257 272 268 270 278 284 295 299 275 234 213 207 204 205 209 214 222 225 219 215 214 212
192 191 190 187 184 181 179 181 187 197 209 212 208 235 259 278 291 299 308 322 337 341 339 335 330 332 337 337 335 335 334 335 338 337 333 333 331 325 321 321 322 321 312 300 294 292 286 279 277 273 262 252 248 255 262 272 278 275 282 294 277 227 205 200 201 206 212 214 216 215 211 209 207 206
181 178 178 174 170 173 180 189 198 210 218 216 225 249 271 286 292 303 322 339 345 343 339 334 330 333 339 341 343 344 342 342 344 342 337 335 335 335 333 331 334 341 342 328 310 307 305 295 286 277 265 254 249 251 253 261 277 275 275 276 266 228 199 196 201 211 213 207 204 206 207 206 204 204
163 160 159 163 169 175 182 195 208 214 218 222 234 255 272 279 289 318 342 348 347 344 341 336 335 340 346 348 350 351 349 347 348 348 343 336 334 337 335 330 332 343 350 353 351 345 342 335 323 304 275 252 247 250 249 250 263 273 276 270 253 212 181 189 201 212 207 196 194 200 202 200 200 204
156 158 158 161 171 178 182 191 203 206 209 217 229 242 255 269 301 336 344 344 350 352 347 343 345 349 353 353 354 353 351 350 351 352 349 343 338 339 340 335 334 339 345 354 2 6 8 3 351 344 327 272 262 261 245 242 258 274 283 283 235 156 156 179 196 207 200 186 182 188 191 193 197 201
156 158 162 165 172 179 182 188 194 197 200 203 213 229 238 248 303 338 341 349 359 1 356 353 353 355 357 357 356 355 352 351 353 355 353 349 346 345 344 342 344 343 343 348 354 360 6 9 7 21 51 58 48 37 22 249 283 302 316 354 45 77 93 138 187 200 195 181 172 173 180 189 195 199
160 161 165 169 175 179 184 191 195 196 199 199 205 217 220 217 291 338 349 359 7 7 2 1 1 1 1 359 357 355 351 349 352 356 355 352 353 352 348 343 347 348 347 348 351 354 359 5 12 22 35 50 54 47 40 32 0 348 4 22 28 31 38 40 81 183 181 171 159 152 159 177 189 197
162 166 168 174 182 184 188 196 199 197 198 199 202 207 205 196 292 344 358 8 10 8 6 8 9 8 5 1 358 356 351 347 350 354 357 358 359 357 352 349 347 346 347 353 358 359 1 5 11 15 8 355 20 40 34 31 22 8 11 23 22 18 17 18 31 120 153 152 147 140 128 149 176 189
165 171 174 178 184 187 191 199 201 198 199 199 198 201 200 187 203 350 10 15 11 8 9 13 13 11 8 4 0 359 356 352 351 353 356 359 358 355 356 358 353 350 353 357 359 0 1 1 3 9 9 360 5 24 20 21 23 20 15 11 14 15 12 10 30 65 91 110 138 151 145 136 161 181
165 175 180 182 186 189 195 200 199 197 198 197 195 198 197 187 191 2 17 17 12 12 15 16 16 14 11 7 5 4 3 359 356 354 354 356 357 357 357 357 354 353 355 356 0 4 3 357 359 10 8 359 14 18 349 357 15 25 24 14 10 14 13 13 26 38 36 44 101 142 160 162 163 174
171 177 183 186 189 193 197 198 197 196 196 194 194 196 194 187 184 65 22 18 17 19 19 18 18 16 14 12 9 6 5 4 1 358 357 357 359 358 354 351 351 353 352 353 1 7 8 3 1 6 6 2 9 1 345 346 3 16 22 20 13 12 16 18 18 14 14 21 42 71 139 168 176 180
182 185 188 190 193 196 198 197 198 198 197 194 193 194 192 187 185 190 12 19 24 24 21 20 20 18 16 16 14 10 9 7 3 360 357 356 356 355 353 351 350 351 352 354 360 5 8 7 1 355 352 347 324 310 309 301 335 6 21 28 23 15 15 16 14 6 5 7 6 27 115 145 162 172
189 193 195 194 194 196 198 198 198 198 197 195 193 194 193 190 188 190 176 35 29 26 23 19 18 18 18 18 17 16 15 11 7 3 359 357 358 357 356 356 355 354 354 355 359 2 3 1 358 355 350 343 325 306 308 313 345 7 18 28 31 26 20 19 21 18 7 2 5 31 82 102 122 146
189 195 199 197 196 197 198 198 198 197 196 194 194 195 195 193 193 193 178 73 36 30 26 20 17 18 19 19 18 18 16 12 11 9 4 1 0 0 1 3 2 1 0 354 354 357 356 357 1 7 9 9 13 20 14 12 8 359 1 11 26 35 34 31 31 31 24 22 25 32 29 27 49 94
192 197 199 199 199 200 199 198 198 196 195 194 195 197 198 196 196 194 186 140 50 36 27 22 20 17 17 18 19 20 19 15 11 10 9 6 2 1 4 6 2 358 357 351 346 349 354 4 12 18 22 25 31 42 38 14 1 344 347 358 14 29 37 39 38 39 40 40 40 35 16 358 10 37
196 200 201 200 200 201 200 199 198 197 195 195 195 197 199 201 201 199 195 195 116 56 33 24 23 20 17 18 19 19 22 21 16 13 12 11 7 2 0 0 360 359 357 354 354 359 6 13 17 20 24 26 27 30 32 14 6 353 349 356 5 14 24 35 42 47 52 55 54 49 41 34 33 34
200 203 204 201 200 200 201 201 199 198 196 195 196 199 201 203 207 208 205 206 208 85 39 26 24 21 18 18 19 20 23 23 20 17 15 14 12 10 4 1 2 5 5 2 1 5 11 14 18 23 27 25 21 18 12 12 9 356 348 359 7 8 12 22 31 38 45 50 53 52 49 50 56 58
202 205 205 203 201 201 201 201 200 199 197 197 198 201 203 205 209 213 211 210 217 228 24 25 23 19 15 15 17 19 21 22 21 22 21 18 16 15 13 9 7 7 9 8 4 3 6 11 18 24 25 23 22 19 14 15 18 7 359 5 9 7 8 14 18 20 26 32 37 43 48 52 59 66